[[{"header":{"parameterUnit":"m.s-1","parameterCategory":1,"la1":30.2991,"la2":30.254,"lo1":-89.0895,"lo2":-89.0444,"dy":0.0017,"dx":0.0017,"nx":28,"ny":28,"refTime":"2025-01-28T03:00:00:Z","depth":0,"parameterNumber":2,"parameterNumberName":"U-component_of_WINDS"},"data":[0,0,0,0,0,0,0,0,0,0,0,0,0,0,0,0,0,0,0,0,0,0,0,0,0,0,0,0,0,0,0,0,0,0,0,0,0,0,0,0,0,0,0,0,0,0,0,0,0,0,0,0,0,0,0,0,0,0,0.1485,0.1486,0,0.1597,0.1598,0.1599,0.1671,0.1671,0.1672,0.1672,0.1787,0.179,0.1792,0,0,0,0,0,0,0,0,0,0,0,0,0,0.1332,0.1335,0.1485,0.1486,0.1487,0.1596,0.1598,0.16,0.1671,0.1671,0.1672,0.1672,0.1786,0.1789,0.1793,0,0,0,0,0,0,0,0,0,0,0,0,0,0.1417,0.1335,0.1484,0.1536,0.1542,0.1596,0.1598,0.16,0.1671,0.1671,0.1672,0.1672,0.1785,0.1789,0.1793,0.1805,0,0,0.1805,0.1807,0,0,0,0,0,0,0,0,0.1412,0.1422,0.1527,0.1533,0.1539,0.162,0.1587,0.1669,0.167,0.1622,0.1672,0.1673,0.1731,0.174,0.1759,0.181,0.1815,0.1806,0.1808,0.181,0.1811,0,0,0,0,0,0,0,0.1406,0.1418,0.1529,0.1529,0.1536,0.1554,0.1566,0.1602,0.1671,0.1626,0.1631,0.1644,0.1735,0.1755,0.1762,0.1817,0.1806,0.1809,0.1812,0.1813,0.1882,0.1882,0,0,0,0,0,0,0.1392,0.1412,0.1526,0.1532,0.1476,0.1556,0.157,0.1594,0.1671,0.1684,0.1643,0.1647,0.1748,0.1758,0.1767,0.1785,0.181,0.1813,0.1816,0.1883,0.1882,0.1881,0,0,0,0,0,0,0.1388,0.1401,0.1521,0.1474,0.1491,0.1558,0.1584,0.1596,0.1616,0.1684,0.1697,0.1651,0.1749,0.1761,0.1795,0.179,0.1815,0.1819,0.1883,0.1882,0.1882,0.1822,0,0,0,0,0,0,0.1384,0.1399,0.1405,0.1473,0.1493,0.1547,0.1584,0.1597,0.1623,0.1629,0.1695,0.1707,0.175,0.1788,0.1799,0.1796,0.1822,0.1884,0.1883,0.1882,0.1824,0.1819,0.1814,0,0,0,0,0,0.1378,0.1384,0.1405,0.1418,0.1501,0.1546,0.1557,0.1607,0.1622,0.1628,0.1671,0.1705,0.1789,0.1791,0.1803,0.1802,0.1885,0.1883,0.1882,0.1827,0.182,0.1814,0,0,0,0,0,0,0.1314,0.1394,0.1418,0.1446,0.1489,0.1558,0.1567,0.1599,0.1638,0.1642,0.1702,0.1716,0.1743,0.1776,0.1777,0.1817,0.1841,0.1842,0.1794,0.1789,0.1783,0.1775,0.1825,0,0,0,0,0,0.1303,0.1333,0.1402,0.142,0.144,0.15,0.1521,0.1556,0.1602,0.1621,0.1667,0.1711,0.1747,0.177,0.1807,0.1829,0.1845,0.1834,0.1829,0.1825,0.1825,0.1838,0.1834,0.1877,0.1877,0.1877,0,0,0.1281,0.1328,0.1344,0.1408,0.1445,0.1475,0.1514,0.1545,0.1567,0.1626,0.166,0.1695,0.1748,0.1775,0.179,0.1804,0.1816,0.1823,0.1819,0.1822,0.1836,0.1832,0.1829,0.1876,0.1876,0.1877,0,0,0.1255,0.1295,0.1314,0.135,0.1405,0.1445,0.1449,0.1513,0.1539,0.1574,0.1618,0.1645,0.1707,0.1742,0.1768,0.1755,0.1787,0.1765,0.1739,0.1751,0.1747,0.1745,0.1739,0.1736,0.1765,0.1765,0.1765,0,0.1221,0.1268,0.132,0.1347,0.1374,0.1427,0.1447,0.1479,0.1544,0.1561,0.1575,0.1652,0.1692,0.1728,0.1724,0.1744,0.175,0.1758,0.1744,0.1742,0.174,0.1735,0.1733,0.1762,0.1762,0.1763,0.1763,0,0.1222,0.1253,0.1262,0.1322,0.135,0.1373,0.1429,0.145,0.1482,0.1519,0.1554,0.1603,0.165,0.1662,0.1693,0.1702,0.1708,0.1732,0.1757,0.1732,0.1728,0.1727,0.1758,0.1759,0.176,0.1761,0,0,0.116,0.1248,0.125,0.1278,0.1342,0.1367,0.1392,0.1438,0.1455,0.1498,0.152,0.157,0.1592,0.1621,0.1657,0.1668,0.1653,0.1691,0.1693,0.1681,0.1664,0.1645,0.1642,0.1674,0.1674,0.1674,0.1659,0,0.1144,0.1192,0.1239,0.127,0.1299,0.1349,0.1371,0.1413,0.1448,0.1478,0.1518,0.1551,0.1579,0.1597,0.1609,0.1652,0.165,0.1653,0.1695,0.1696,0.1679,0.1641,0.1621,0.1605,0.1658,0.1658,0.1658,0,0.1132,0.1171,0.1204,0.1265,0.1279,0.1297,0.1342,0.137,0.1418,0.1443,0.1475,0.1513,0.1541,0.1563,0.1602,0.1603,0.1623,0.1646,0.1647,0.1652,0.1675,0.1644,0.1601,0.1598,0.1657,0.1657,0.1657,0,0.1082,0.1143,0.1171,0.1193,0.1264,0.1276,0.1306,0.1355,0.1379,0.1418,0.1434,0.1476,0.1499,0.1531,0.1579,0.159,0.1613,0.1639,0.1634,0.1633,0.1636,0.1635,0.1595,0.165,0.165,0.165,0.165,0,0.1059,0.1077,0.115,0.1166,0.1188,0.1242,0.1262,0.1296,0.1339,0.1363,0.1409,0.1431,0.1493,0.1522,0.1559,0.1586,0.1596,0.1617,0.1626,0.1612,0.1609,0.1626,0.1628,0.1649,0.1649,0.1649,0.1649,0,0.1007,0.1057,0.109,0.1154,0.1171,0.1183,0.1238,0.1256,0.1294,0.1324,0.1334,0.1393,0.143,0.148,0.1532,0.1558,0.1578,0.1594,0.1562,0.1568,0.156,0.1559,0.1528,0.1526,0.1582,0.1581,0.1581,0,0.0989,0.1004,0.107,0.1089,0.1117,0.1148,0.1173,0.1226,0.1249,0.1304,0.1315,0.1355,0.1389,0.1445,0.1492,0.1532,0.1549,0.1535,0.1555,0.154,0.1548,0.1546,0.1547,0.153,0.1529,0.1529,0.1528,0,0.0951,0.0974,0.1008,0.1049,0.1077,0.1113,0.115,0.1163,0.1224,0.1248,0.1286,0.1312,0.1365,0.1403,0.1449,0.148,0.1514,0.1521,0.1522,0.1508,0.1488,0.1498,0.1548,0.1522,0.1522,0.1523,0.1523,0.1523,0.0916,0.0931,0.0979,0.1014,0.1048,0.1081,0.1101,0.1141,0.1173,0.1219,0.1249,0.1284,0.133,0.1395,0.1425,0.1453,0.1467,0.1468,0.1469,0.1468,0.1463,0.1483,0.1462,0.1462,0.1462,0.1462,0.1463,0,0.0879,0.0912,0.0944,0.0995,0.1022,0.1051,0.1094,0.1115,0.1145,0.1186,0.1218,0.1261,0.1298,0.1348,0.1388,0.1401,0.1418,0.141,0.141,0.1416,0.1448,0.1443,0.1396,0.1396,0.1396,0.1396,0.1396,0.1396,0.0864,0.089,0.0919,0.0963,0.0996,0.1031,0.1052,0.1083,0.1116,0.116,0.1191,0.1224,0.1267,0.1311,0.1347,0.136,0.1373,0.136,0.1379,0.1408,0.1414,0.142,0.1415,0.1363,0.1363,0.1344,0.1344,0.1344]},{"header":{"parameterUnit":"m.s-1","parameterCategory":1,"la1":30.2991,"la2":30.254,"lo1":-89.0895,"lo2":-89.0444,"dy":0.0017,"dx":0.0017,"nx":28,"ny":28,"refTime":"2025-01-28T03:00:00:Z","depth":0,"parameterNumber":3,"parameterNumberName":"V-component_of_WINDS"},"data":[0,0,0,0,0,0,0,0,0,0,0,0,0,0,0,0,0,0,0,0,0,0,0,0,0,0,0,0,0,0,0,0,0,0,0,0,0,0,0,0,0,0,0,0,0,0,0,0,0,0,0,0,0,0,0,0,0,0,1.6591,1.659,0,1.6582,1.6582,1.6582,1.6606,1.6607,1.6607,1.6608,1.6597,1.6596,1.6595,0,0,0,0,0,0,0,0,0,0,0,0,0,1.6625,1.6625,1.6591,1.659,1.659,1.6582,1.6582,1.6582,1.6606,1.6607,1.6608,1.6608,1.6597,1.6596,1.6595,0,0,0,0,0,0,0,0,0,0,0,0,0,1.6613,1.6624,1.6591,1.6601,1.6602,1.6582,1.6582,1.6582,1.6606,1.6607,1.6608,1.6609,1.6597,1.6596,1.6595,1.6563,0,0,1.659,1.6589,0,0,0,0,0,0,0,0,1.6613,1.6611,1.66,1.6601,1.6602,1.6596,1.659,1.6575,1.6605,1.6604,1.6608,1.6609,1.6595,1.6594,1.659,1.6562,1.6562,1.659,1.6589,1.6588,1.6588,0,0,0,0,0,0,0,1.6614,1.6612,1.6587,1.66,1.6601,1.6606,1.6605,1.6587,1.6593,1.6604,1.6606,1.6605,1.6596,1.6591,1.659,1.6561,1.659,1.6588,1.6588,1.6587,1.6506,1.6504,0,0,0,0,0,0,1.6614,1.6612,1.6587,1.6587,1.661,1.6604,1.6604,1.6597,1.6594,1.6595,1.6604,1.6606,1.6593,1.6592,1.659,1.6551,1.6588,1.6587,1.6586,1.6507,1.6505,1.6504,0,0,0,0,0,0,1.6615,1.6612,1.6588,1.66,1.6597,1.6603,1.6594,1.6596,1.6591,1.6594,1.6595,1.6598,1.6594,1.6592,1.6569,1.6551,1.6586,1.6585,1.6508,1.6506,1.6505,1.6474,0,0,0,0,0,0,1.6616,1.6612,1.66,1.66,1.6597,1.6568,1.6593,1.6595,1.6589,1.6592,1.6588,1.6589,1.6595,1.6571,1.6568,1.655,1.6584,1.651,1.6507,1.6505,1.6477,1.6471,1.6467,0,0,0,0,0,1.6617,1.6592,1.6599,1.6596,1.6583,1.6567,1.6565,1.6573,1.6587,1.6575,1.6577,1.6589,1.6554,1.6569,1.6565,1.6546,1.6511,1.6508,1.6505,1.6479,1.6472,1.6467,0,0,0,0,0,0,1.6589,1.6592,1.66,1.6575,1.657,1.6571,1.6556,1.6566,1.6557,1.656,1.657,1.6569,1.6544,1.6543,1.6559,1.6514,1.6535,1.6531,1.6516,1.651,1.6505,1.6505,1.6582,0,0,0,0,0,1.658,1.6568,1.6571,1.6547,1.6545,1.6551,1.6544,1.6551,1.6547,1.6545,1.6545,1.6539,1.6527,1.6519,1.6507,1.6477,1.6476,1.6462,1.6457,1.6453,1.6449,1.6432,1.6426,1.6495,1.6495,1.6495,0,0,1.6561,1.6561,1.6552,1.6542,1.6539,1.6525,1.6549,1.6534,1.6523,1.6542,1.6521,1.652,1.6515,1.6488,1.6476,1.6486,1.643,1.645,1.6446,1.6445,1.6429,1.6422,1.6416,1.6493,1.6493,1.6493,0,0,1.6518,1.6518,1.6498,1.6495,1.6491,1.6496,1.6491,1.649,1.6491,1.6469,1.6483,1.6471,1.645,1.6445,1.644,1.6396,1.6406,1.6392,1.6366,1.6349,1.6343,1.6338,1.6321,1.6315,1.6389,1.6389,1.6389,0,1.6495,1.6475,1.6486,1.647,1.6464,1.6482,1.6461,1.6458,1.645,1.6445,1.6457,1.6431,1.6429,1.64,1.639,1.6385,1.6379,1.6392,1.6343,1.6339,1.6334,1.6318,1.6312,1.6387,1.6387,1.6387,1.6387,0,1.6445,1.6432,1.6416,1.6409,1.6402,1.6383,1.639,1.6382,1.6389,1.6392,1.637,1.6368,1.6356,1.635,1.6357,1.6323,1.6329,1.6342,1.6362,1.6326,1.6311,1.6305,1.6384,1.6385,1.6385,1.6386,0,0,1.6384,1.6384,1.6378,1.6374,1.6372,1.6361,1.6343,1.6332,1.6324,1.6319,1.6303,1.6285,1.6297,1.6291,1.6298,1.6283,1.6247,1.6298,1.6298,1.6287,1.6207,1.6196,1.6188,1.6254,1.6253,1.6252,1.6207,0,1.6341,1.6311,1.6321,1.629,1.6276,1.6293,1.6277,1.6273,1.6276,1.6264,1.6266,1.6252,1.627,1.6267,1.6253,1.6254,1.623,1.6258,1.6238,1.6237,1.6237,1.6181,1.6169,1.6126,1.6201,1.62,1.6199,0,1.6287,1.628,1.6248,1.6247,1.6242,1.6227,1.6218,1.6207,1.6203,1.6205,1.6199,1.6209,1.619,1.6212,1.6185,1.6203,1.6196,1.6195,1.6194,1.6191,1.6215,1.6175,1.6113,1.6106,1.619,1.6191,1.6192,0,1.6244,1.6226,1.6204,1.6201,1.62,1.6189,1.6188,1.6185,1.6178,1.617,1.6165,1.6155,1.6149,1.614,1.6146,1.6162,1.6118,1.6141,1.6118,1.6118,1.6107,1.6107,1.6041,1.6105,1.6105,1.6105,1.6105,0,1.6194,1.6173,1.6185,1.6171,1.6148,1.6159,1.6136,1.6136,1.6134,1.612,1.6134,1.6121,1.6131,1.6118,1.6122,1.6099,1.6096,1.6097,1.6098,1.6095,1.6094,1.6089,1.6091,1.6104,1.6104,1.6104,1.6105,0,1.6141,1.6148,1.6125,1.6126,1.6126,1.6109,1.6109,1.6096,1.61,1.6082,1.6078,1.6083,1.6069,1.6075,1.6059,1.6063,1.6032,1.6038,1.6033,1.6034,1.6011,1.6013,1.5938,1.5928,1.6,1.5999,1.5998,0,1.6108,1.6093,1.6092,1.6084,1.6082,1.6069,1.6062,1.6073,1.6065,1.6059,1.6046,1.6033,1.6023,1.5999,1.6,1.5988,1.5993,1.5968,1.5991,1.5988,1.5991,1.5991,1.5989,1.5962,1.5961,1.5961,1.596,0,1.6048,1.6053,1.6042,1.6033,1.6024,1.6018,1.6012,1.6004,1.6014,1.6004,1.599,1.5982,1.5967,1.5953,1.5942,1.594,1.5951,1.5953,1.5947,1.5942,1.594,1.5939,1.6019,1.5954,1.5955,1.5955,1.5956,1.5956,1.6003,1.599,1.5987,1.5975,1.5972,1.5966,1.5954,1.5956,1.5945,1.5933,1.594,1.5923,1.5919,1.5906,1.5902,1.5888,1.5898,1.5889,1.5887,1.5884,1.588,1.5944,1.5886,1.5887,1.5887,1.5887,1.5887,0,1.5943,1.5942,1.5931,1.5923,1.5913,1.5926,1.592,1.5911,1.5896,1.5891,1.5881,1.5864,1.5851,1.5852,1.584,1.5828,1.5833,1.5824,1.5824,1.5823,1.5873,1.5879,1.5821,1.5821,1.5821,1.5821,1.5821,1.5821,1.591,1.5888,1.5892,1.5868,1.5867,1.5851,1.5847,1.5841,1.5837,1.5818,1.5808,1.5809,1.5806,1.5794,1.5782,1.5782,1.5776,1.5765,1.5768,1.5814,1.582,1.5826,1.5832,1.5765,1.5764,1.5719,1.5718,1.5718]}]]